FW3266 Weather Reports


Display with metric or nautical units.
time (UTC)temp
F
wind
direction
speed
MPH
gust
MPH
rain 1hr
in
rain 24hr
in
rain mn
in
humidity
%
barometer
mb
20260508035724 53 295 4.0 9.0 0.00 0.35 0.35 51 1008.8
20260508034946 52 289 3.0 8.0 0.00 0.35 0.35 50 1008.7
20260508034444 52 308 2.0 8.0 0.00 0.35 0.35 52 1008.8
20260508033939 53 288 2.0 7.0 0.00 0.35 0.35 52 1008.7
20260508033440 53 309 4.0 7.0 0.00 0.35 0.35 52 1008.7
20260508032937 53 297 2.0 6.0 0.00 0.35 0.35 52 1008.8
20260508032430 53 311 3.0 6.0 0.00 0.35 0.35 53 1008.8
20260508031930 53 283 2.0 4.0 0.00 0.35 0.35 52 1008.9
20260508031424 53 318 3.0 6.0 0.00 0.35 0.35 52 1008.9
20260508030910 53 336 3.0 6.0 0.00 0.35 0.35 51 1008.9
20260508030644 53 313 3.0 6.0 0.00 0.35 0.35 51 1008.8
20260508025908 53 316 2.0 7.0 0.00 0.35 0.35 52 1008.8
20260508025406 52 309 2.0 10.0 0.00 0.35 0.35 52 1008.7
20260508024903 53 320 2.0 10.0 0.00 0.35 0.35 53 1008.7
20260508024356 53 338 2.0 5.0 0.00 0.35 0.35 52 1008.6
20260508023851 52 292 2.0 8.0 0.00 0.35 0.35 52 1008.6
20260508023344 52 286 4.0 8.0 0.00 0.35 0.35 53 1008.6
20260508022846 52 295 2.0 6.0 0.00 0.35 0.35 54 1008.6
20260508022339 52 297 2.0 6.0 0.00 0.35 0.35 53 1008.9
20260508021842 52 317 2.0 6.0 0.00 0.35 0.35 54 1008.7
20260508021336 52 305 3.0 7.0 0.00 0.35 0.35 52 1008.8
20260508021111 53 288 2.0 7.0 0.00 0.35 0.35 52 1008.7
20260508020330 53 275 2.0 6.0 0.00 0.35 0.35 53 1008.7
20260508015823 53 302 4.0 6.0 0.00 0.35 0.35 51 1008.7
20260508015317 53 293 2.0 6.0 0.00 0.35 0.35 51 1008.7
20260508014814 53 308 3.0 6.0 0.00 0.35 0.35 52 1008.6
20260508014308 53 312 2.0 6.0 0.00 0.35 0.35 53 1008.5
20260508013802 53 296 2.0 6.0 0.00 0.35 0.35 53 1008.6
20260508013255 53 323 2.0 8.0 0.00 0.35 0.35 53 1008.4
20260508012749 53 302 3.0 9.0 0.00 0.35 0.35 51 1008.4
20260508012245 53 335 3.0 9.0 0.00 0.35 0.35 52 1008.3
20260508011740 53 307 2.0 5.0 0.00 0.35 0.35 53 1008.2
20260508011234 53 284 2.0 4.0 0.00 0.35 0.35 54 1008.2
20260508010722 53 283 2.0 6.0 0.00 0.35 0.35 52 1008.2
20260508010209 53 318 3.0 6.0 0.00 0.35 0.35 54 1008.2
20260508005930 53 302 2.0 5.0 0.00 0.35 0.35 54 1008.1
20260508005159 53 300 2.0 5.0 0.00 0.35 0.35 52 1008.0
20260508004659 54 300 2.0 5.0 0.00 0.35 0.35 52 1007.9
20260508004153 54 356 2.0 5.0 0.00 0.35 0.35 53 1007.6
20260508003652 54 11 2.0 6.0 0.00 0.36 0.35 52 1007.5
20260508003147 54 271 2.0 6.0 0.00 0.36 0.35 52 1007.5
20260508002642 54 318 2.0 5.0 0.00 0.36 0.35 51 1007.4
20260508002138 55 336 2.0 5.0 0.00 0.36 0.35 51 1007.4
20260508001622 55 328 1.0 6.0 0.00 0.36 0.35 53 1007.3
20260508001119 55 317 2.0 6.0 0.00 0.36 0.35 52 1007.3
20260508000612 55 323 2.0 7.0 0.00 0.37 0.35 53 1007.3
20260508000105 55 310 2.0 7.0 0.00 0.37 0.35 54 1007.3
20260507235602 55 330 2.0 6.0 0.00 0.37 0.35 59 1007.2
20260507235055 55 6 1.0 6.0 0.00 0.37 0.35 66 1007.2
20260507234823 55 328 2.0 6.0 0.00 0.37 0.35 65 1007.2
20260507234051 55 310 0.0 1.0 0.00 0.37 0.35 73 1007.2
20260507233544 55 310 0.0 2.0 0.00 0.37 0.35 73 1007.2
20260507233033 55 310 0.0 2.0 0.00 0.37 0.35 74 1007.0
20260507232525 55 310 1.0 4.0 0.00 0.37 0.35 74 1007.1
20260507232022 56 310 0.0 4.0 0.00 0.38 0.35 74 1007.1
20260507231541 56 173 1.0 4.0 0.00 0.39 0.35 73 1006.9
20260507231533 56 174 1.0 3.0 0.00 0.38 0.35 74 1007.0
20260507230518 56 173 2.0 4.0 0.00 0.39 0.35 73 1006.9
20260507225958 56 157 1.0 3.0 0.00 0.39 0.35 74 1006.7
20260507225452 56 159 1.0 3.0 0.00 0.39 0.35 73 1006.7
20260507224954 56 176 1.0 4.0 0.00 0.39 0.35 73 1006.7
20260507224448 56 177 2.0 4.0 0.00 0.39 0.35 73 1006.6
20260507223935 56 193 2.0 7.0 0.00 0.40 0.35 73 1006.6
20260507223431 56 149 1.0 7.0 0.00 0.40 0.35 73 1006.5
20260507222927 56 169 2.0 5.0 0.00 0.40 0.35 73 1006.6
20260507222426 56 179 2.0 6.0 0.00 0.40 0.35 73 1006.5
20260507221921 56 190 3.0 6.0 0.00 0.40 0.35 72 1006.6
20260507221650 56 138 4.0 7.0 0.00 0.40 0.35 72 1006.6
20260507220908 56 171 2.0 9.0 0.00 0.40 0.35 71 1006.5
20260507220409 56 181 3.0 9.0 0.00 0.40 0.35 71 1006.6
20260507215906 56 192 3.0 8.0 0.00 0.40 0.35 70 1006.5
20260507215405 57 144 3.0 7.0 0.00 0.40 0.35 70 1006.5
20260507214859 57 138 2.0 6.0 0.00 0.40 0.35 70 1006.6
20260507214356 57 134 3.0 6.0 0.00 0.40 0.35 70 1006.4
20260507213855 57 158 1.0 8.0 0.00 0.40 0.35 70 1006.5
20260507213350 57 192 3.0 8.0 0.00 0.40 0.35 70 1006.4
20260507212845 56 162 2.0 6.0 0.00 0.40 0.35 69 1006.5
20260507212620 56 161 2.0 8.0 0.00 0.40 0.35 68 1006.4
20260507212616 56 94 3.0 6.0 0.00 0.40 0.35 69 1006.4
20260507211558 57 205 3.0 8.0 0.00 0.40 0.35 66 1006.4
20260507210828 56 175 4.0 9.0 0.00 0.40 0.35 65 1006.4
20260507210824 57 137 2.0 9.0 0.00 0.40 0.35 66 1006.4
20260507205817 56 178 4.0 8.0 0.00 0.40 0.35 64 1006.4
20260507205309 56 115 4.0 10.0 0.00 0.40 0.35 66 1006.4
20260507204804 56 195 4.0 10.0 0.00 0.40 0.35 66 1006.3
20260507204257 56 220 2.0 9.0 0.00 0.40 0.35 67 1006.2
20260507203755 56 193 3.0 8.0 0.00 0.40 0.35 68 1006.1
20260507203246 56 113 2.0 8.0 0.00 0.40 0.35 67 1006.2
20260507202742 56 172 4.0 10.0 0.00 0.40 0.35 67 1006.3
20260507202235 56 136 4.0 10.0 0.00 0.40 0.35 68 1006.3
20260507201730 56 138 3.0 10.0 0.00 0.40 0.35 70 1006.2
20260507201223 56 183 5.0 10.0 0.00 0.40 0.35 69 1006.2
20260507200720 56 110 3.0 11.0 0.00 0.40 0.35 68 1006.2
20260507200221 56 165 3.0 11.0 0.00 0.40 0.35 68 1006.2
20260507195713 56 172 6.0 11.0 0.00 0.40 0.35 68 1006.4
20260507195214 56 204 3.0 11.0 0.00 0.40 0.35 69 1006.3
20260507194711 57 152 6.0 11.0 0.00 0.40 0.35 67 1006.4
20260507194210 57 151 3.0 10.0 0.00 0.40 0.35 66 1006.5
20260507193706 56 154 4.0 10.0 0.00 0.40 0.35 66 1006.4
20260507193203 56 150 5.0 12.0 0.00 0.40 0.35 66 1006.5
20260507192657 56 167 5.0 12.0 0.00 0.40 0.35 67 1006.6
20260507192153 56 203 4.0 9.0 0.00 0.40 0.35 69 1006.7
20260507191646 56 280 4.0 8.0 0.00 0.40 0.35 71 1006.8
20260507191141 56 212 2.0 10.0 0.00 0.40 0.35 71 1006.9
20260507190932 56 198 3.0 10.0 0.00 0.40 0.35 70 1006.8
20260507190136 56 185 6.0 11.0 0.00 0.40 0.35 69 1006.9
20260507185638 56 182 5.0 11.0 0.00 0.40 0.35 68 1007.1
20260507185133 57 211 4.0 10.0 0.00 0.40 0.35 69 1006.9
20260507184906 57 165 2.0 7.0 0.00 0.40 0.35 71 1007.2
20260507184126 57 164 3.0 8.0 0.00 0.40 0.35 72 1007.1
20260507183622 57 155 2.0 8.0 0.00 0.40 0.35 72 1007.1
20260507183107 56 113 2.0 7.0 0.00 0.40 0.35 73 1007.1
20260507182605 56 52 2.0 7.0 0.00 0.40 0.35 73 1007.0
20260507182104 56 203 3.0 8.0 0.00 0.40 0.35 73 1007.1
20260507181558 56 160 2.0 8.0 0.00 0.40 0.35 73 1007.1
20260507181051 56 151 4.0 7.0 0.00 0.40 0.35 74 1007.1
20260507180551 56 184 2.0 6.0 0.00 0.40 0.35 74 1007.2
20260507180045 55 139 2.0 7.0 0.00 0.40 0.35 74 1007.1
20260507175548 55 172 3.0 7.0 0.00 0.40 0.35 74 1007.0
20260507175318 56 169 2.0 6.0 0.00 0.40 0.35 72 1007.2
20260507175314 55 212 2.0 7.0 0.00 0.40 0.35 73 1007.1
20260507174032 57 110 4.0 6.0 0.00 0.40 0.35 71 1007.2
20260507173532 57 180 3.0 7.0 0.00 0.40 0.35 73 1007.1
20260507173019 56 182 2.0 8.0 0.00 0.40 0.35 72 1007.1
20260507172518 56 110 4.0 8.0 0.00 0.40 0.35 73 1007.3
20260507172013 56 158 2.0 5.0 0.00 0.40 0.35 72 1007.3
20260507171514 55 142 3.0 5.0 0.00 0.40 0.35 72 1007.5
20260507171009 55 137 2.0 5.0 0.00 0.40 0.35 72 1007.6
20260507170508 56 130 2.0 5.0 0.00 0.40 0.35 70 1007.6
20260507170005 56 126 2.0 4.0 0.00 0.40 0.35 69 1007.7
20260507165730 57 114 2.0 4.0 0.00 0.40 0.35 67 1007.7
20260507164946 57 126 2.0 5.0 0.00 0.40 0.35 66 1007.7
20260507164445 58 122 2.0 5.0 0.00 0.40 0.35 66 1007.7
20260507163940 58 148 2.0 5.0 0.00 0.40 0.35 70 1007.9
20260507163434 58 139 1.0 5.0 0.00 0.40 0.35 69 1007.9
20260507162932 58 110 3.0 5.0 0.00 0.40 0.35 67 1007.9
20260507162425 57 105 2.0 5.0 0.00 0.40 0.35 70 1007.9
20260507161930 56 84 2.0 5.0 0.00 0.40 0.35 71 1008.2
20260507161926 57 85 3.0 5.0 0.00 0.40 0.35 68 1008.0
20260507160912 56 101 2.0 7.0 0.00 0.40 0.35 69 1008.2
20260507160407 56 77 4.0 7.0 0.00 0.40 0.35 69 1008.2
20260507155900 56 51 2.0 6.0 0.00 0.40 0.35 69 1008.3
20260507155401 56 63 3.0 9.0 0.00 0.40 0.35 66 1008.5
20260507154857 56 76 6.0 12.0 0.00 0.40 0.35 66 1008.5
20260507154358 57 71 6.0 12.0 0.00 0.40 0.35 66 1008.4
20260507153851 58 83 6.0 10.0 0.00 0.40 0.35 65 1008.5
20260507153351 58 61 4.0 10.0 0.00 0.40 0.35 65 1008.5
20260507152847 58 55 5.0 9.0 0.00 0.40 0.35 62 1008.6
20260507152624 59 45 4.0 7.0 0.00 0.40 0.35 64 1008.6
20260507152119 59 68 2.0 10.0 0.00 0.40 0.35 64 1008.6
20260507151335 59 72 5.0 10.0 0.00 0.40 0.35 61 1008.8
20260507150829 59 74 6.0 10.0 0.00 0.40 0.35 62 1009.0
20260507150322 59 75 6.0 10.0 0.00 0.40 0.35 61 1008.9
20260507145818 59 29 5.0 10.0 0.00 0.40 0.35 63 1008.9
20260507145319 59 50 6.0 10.0 0.00 0.40 0.35 60 1008.8
20260507144827 59 359 6.0 9.0 0.00 0.40 0.35 60 1008.9
20260507144822 59 342 6.0 9.0 0.00 0.40 0.35 57 1008.8
20260507143809 59 343 3.0 10.0 0.00 0.40 0.35 60 1008.8
20260507143304 58 1 4.0 10.0 0.00 0.40 0.35 62 1008.9
20260507142756 58 37 3.0 12.0 0.00 0.40 0.35 66 1008.9
20260507142528 58 72 6.0 12.0 0.00 0.40 0.35 62 1009.1
20260507141747 58 33 5.0 11.0 0.00 0.40 0.35 63 1009.1
20260507141519 58 30 3.0 8.0 0.00 0.40 0.35 68 1009.2
20260507140740 57 359 5.0 11.0 0.00 0.40 0.35 66 1009.0
20260507140242 57 346 4.0 11.0 0.00 0.40 0.35 68 1009.0
20260507135737 57 41 5.0 10.0 0.00 0.40 0.35 68 1009.0
20260507135232 56 65 4.0 10.0 0.00 0.40 0.35 71 1009.1
20260507134723 56 357 4.0 11.0 0.00 0.40 0.35 73 1009.2
20260507134219 56 317 5.0 11.0 0.00 0.40 0.35 74 1009.1
20260507133946 55 326 4.0 10.0 0.00 0.40 0.35 77 1009.0
20260507133208 55 1 4.0 10.0 0.00 0.40 0.35 79 1009.0
20260507132703 54 41 3.0 10.0 0.00 0.40 0.35 81 1009.0
20260507132159 54 323 6.0 10.0 0.00 0.40 0.35 84 1009.2
20260507131928 53 302 4.0 10.0 0.00 0.40 0.35 87 1009.2
20260507131201 52 11 2.0 7.0 0.00 0.40 0.35 89 1009.1
20260507131157 53 37 4.0 8.0 0.00 0.40 0.35 88 1009.1
20260507130141 52 359 2.0 7.0 0.00 0.40 0.35 89 1009.2
20260507125635 52 353 3.0 6.0 0.00 0.40 0.35 90 1009.2
20260507125129 52 332 2.0 6.0 0.00 0.40 0.35 90 1009.3
20260507124637 51 317 2.0 6.0 0.00 0.40 0.35 90 1009.4
20260507124632 51 328 2.0 6.0 0.00 0.40 0.35 90 1009.2
20260507123619 51 312 2.0 6.0 0.01 0.40 0.35 90 1009.4
20260507123115 51 259 2.0 6.0 0.01 0.40 0.35 90 1009.5
20260507122606 51 294 2.0 5.0 0.02 0.40 0.35 90 1009.4
20260507122107 50 316 1.0 4.0 0.04 0.40 0.35 90 1009.1
20260507121837 50 316 1.0 4.0 0.05 0.40 0.35 90 1009.1
20260507121057 49 323 1.0 4.0 0.05 0.40 0.35 90 1008.9
20260507120553 49 342 2.0 4.0 0.05 0.40 0.35 90 1009.0
20260507120038 49 342 0.0 3.0 0.05 0.40 0.35 90 1009.1
20260507115540 49 342 0.0 2.0 0.05 0.40 0.35 90 1009.0
20260507115032 48 342 0.0 2.0 0.05 0.40 0.35 90 1009.0
20260507114529 49 342 1.0 3.0 0.05 0.40 0.35 89 1009.2
20260507114021 49 342 1.0 4.0 0.05 0.40 0.35 89 1009.1
20260507113537 49 346 2.0 4.0 0.04 0.38 0.33 89 1008.7
20260507113527 49 342 2.0 4.0 0.04 0.39 0.34 89 1008.6
20260507112505 49 345 1.0 4.0 0.03 0.37 0.32 89 1009.1
20260507111953 49 323 0.0 5.0 0.02 0.36 0.31 89 1009.0
20260507111726 49 311 2.0 6.0 0.02 0.35 0.30 89 1009.4
20260507110942 49 330 2.0 7.0 0.02 0.35 0.30 89 1009.1
20260507110436 49 7 4.0 7.0 0.03 0.35 0.30 89 1008.7
20260507105936 49 346 2.0 6.0 0.03 0.35 0.30 89 1008.6
20260507105433 49 8 1.0 5.0 0.03 0.35 0.30 89 1008.7
20260507104928 49 359 2.0 6.0 0.03 0.35 0.30 89 1008.8
20260507104421 49 3 2.0 6.0 0.03 0.35 0.30 89 1008.8
20260507103920 49 345 3.0 6.0 0.03 0.35 0.30 89 1009.1
20260507103416 49 357 3.0 8.0 0.04 0.35 0.30 89 1008.9
20260507102909 49 322 4.0 8.0 0.03 0.34 0.29 90 1009.3
20260507102404 49 0 3.0 7.0 0.03 0.34 0.29 90 1009.3
20260507101905 50 283 3.0 9.0 0.03 0.34 0.29 90 1008.8
20260507101400 50 36 4.0 11.0 0.02 0.33 0.28 90 1008.7
20260507100852 51 335 6.0 11.0 0.02 0.33 0.28 90 1008.6
20260507100626 51 333 2.0 7.0 0.02 0.32 0.27 91 1008.6
20260507095843 51 339 4.0 7.0 0.02 0.32 0.27 90 1008.7
20260507095340 51 335 1.0 6.0 0.02 0.32 0.27 90 1008.3
20260507095103 51 323 1.0 6.0 0.03 0.32 0.27 90 1008.3
20260507094607 52 314 2.0 6.0 0.03 0.32 0.27 91 1008.6
20260507093827 52 337 2.0 6.0 0.03 0.31 0.27 90 1008.4
20260507093328 52 330 3.0 6.0 0.04 0.31 0.26 90 1008.3
20260507092822 52 300 3.0 9.0 0.06 0.31 0.26 90 1008.5
20260507092547 52 325 3.0 9.0 0.09 0.31 0.26 90 1008.4
20260507091810 52 359 3.0 8.0 0.11 0.31 0.26 90 1008.3
20260507091313 52 47 4.0 8.0 0.12 0.31 0.26 90 1008.0
20260507090805 52 359 2.0 6.0 0.13 0.31 0.26 90 1007.9
20260507090300 52 321 2.0 7.0 0.13 0.30 0.25 90 1008.0
20260507085754 52 326 3.0 7.0 0.19 0.30 0.25 90 1008.0
20260507085256 52 314 3.0 7.0 0.22 0.30 0.25 89 1007.9
20260507084750 52 13 2.0 7.0 0.24 0.29 0.24 89 1008.0
20260507084250 52 49 2.0 4.0 0.24 0.29 0.24 89 1008.0
20260507083743 52 48 2.0 6.0 0.23 0.28 0.23 89 1007.8
20260507083237 53 359 2.0 9.0 0.22 0.27 0.22 89 1007.9
20260507082733 53 339 4.0 9.0 0.20 0.25 0.20 88 1008.0
20260507082226 53 359 3.0 8.0 0.17 0.22 0.17 88 1007.9
20260507081719 54 354 3.0 8.0 0.15 0.20 0.15 88 1008.1
20260507081216 54 1 4.0 7.0 0.14 0.19 0.14 88 1008.2
20260507080950 55 0 1.0 7.0 0.13 0.18 0.13 88 1007.8
20260507080209 55 18 2.0 8.0 0.12 0.17 0.12 88 1007.8
20260507075951 56 58 4.0 8.0 0.06 0.11 0.06 87 1007.9
20260507075158 56 297 4.0 10.0 0.02 0.07 0.03 87 1007.8
20260507074652 56 40 4.0 10.0 0.00 0.05 0.00 88 1007.4
20260507074146 56 40 3.0 8.0 0.00 0.05 0.00 89 1006.7
20260507073642 56 26 3.0 6.0 0.00 0.05 0.00 89 1006.6
20260507073410 56 29 1.0 5.0 0.00 0.05 0.00 90 1006.6
20260507072635 56 334 3.0 5.0 0.00 0.05 0.00 90 1006.7
20260507072129 56 350 1.0 5.0 0.00 0.05 0.00 90 1006.7
20260507071857 57 34 3.0 5.0 0.00 0.05 0.00 91 1006.6
20260507071125 57 50 2.0 4.0 0.00 0.05 0.00 91 1006.8
20260507070621 57 50 1.0 4.0 0.00 0.05 0.00 91 1006.8
20260507070114 57 51 1.0 6.0 0.00 0.05 0.00 91 1006.6
20260507065611 58 51 1.0 6.0 0.00 0.05 0.00 91 1006.4
20260507065104 58 248 0.0 3.0 0.00 0.05 0.00 91 1006.5
20260507064600 58 232 0.0 0.0 0.00 0.05 0.00 91 1006.6
20260507064100 58 232 0.0 0.0 0.00 0.05 0.00 91 1006.7
20260507063554 58 232 0.0 0.0 0.00 0.05 0.00 91 1006.7
20260507063318 58 232 0.0 0.0 0.00 0.05 0.00 91 1006.7
20260507062543 58 232 0.0 0.0 0.00 0.05 0.00 91 1006.8
20260507062044 58 232 0.0 2.0 0.00 0.05 0.00 91 1006.9
20260507061550 58 232 0.0 0.0 0.00 0.05 0.00 91 1007.0
20260507061543 58 232 0.0 2.0 0.00 0.05 0.00 91 1006.8
20260507060531 58 232 0.0 0.0 0.00 0.05 0.00 91 1007.1
20260507060027 58 232 0.0 0.0 0.00 0.05 0.00 91 1007.2
20260507055513 58 232 0.0 0.0 0.00 0.05 0.00 91 1006.9
20260507055009 58 232 0.0 4.0 0.00 0.05 0.00 91 1007.0
20260507054456 58 232 1.0 4.0 0.00 0.05 0.00 91 1007.0
20260507054223 58 230 2.0 4.0 0.00 0.05 0.00 91 1007.2
20260507053451 58 230 1.0 3.0 0.00 0.05 0.00 91 1007.2
20260507052938 58 230 2.0 3.0 0.00 0.05 0.00 91 1007.0
20260507052430 58 230 1.0 3.0 0.00 0.05 0.00 91 1007.1
20260507051925 58 225 2.0 4.0 0.00 0.05 0.00 91 1007.3
20260507051420 58 271 2.0 4.0 0.00 0.05 0.00 91 1007.4
20260507050915 58 274 2.0 4.0 0.00 0.05 0.00 91 1007.4
20260507050407 58 256 2.0 4.0 0.00 0.05 0.00 91 1007.4
20260507045909 58 244 2.0 5.0 0.00 0.05 0.00 91 1007.5
20260507045405 58 243 3.0 5.0 0.00 0.05 0.00 91 1007.3
20260507044859 58 245 2.0 5.0 0.00 0.05 0.00 91 1007.3
20260507044351 58 254 2.0 5.0 0.00 0.05 0.00 91 1007.3
20260507044126 58 271 2.0 5.0 0.00 0.05 0.00 91 1007.2
20260507043346 58 316 3.0 5.0 0.00 0.05 0.00 91 1007.2
20260507043113 58 259 2.0 4.0 0.00 0.05 0.00 91 1007.2
20260507042343 58 256 2.0 7.0 0.00 0.05 0.00 91 1007.2
20260507041837 58 260 2.0 7.0 0.00 0.05 0.00 91 1007.2
20260507041338 58 241 2.0 6.0 0.00 0.05 0.00 91 1007.2
20260507040833 58 241 3.0 6.0 0.00 0.05 0.00 91 1007.2
20260507040324 58 238 3.0 6.0 0.00 0.05 0.00 91 1007.2